GW3147 Weather Reports


time (UTC)temp
C
wind
direction
speed
KPH
gust
KPH
rain 1hr
cm
rain 24hr
cm
rain mn
cm
humidity
%
barometer
mb
20260507031535 11 285 3.2 8.0 0.38 1.40 1.40 93 1009.9
20260507030041 11 285 3.2 6.4 0.33 1.32 1.32 93 1009.7
20260507024551 12 285 1.6 8.0 0.10 1.12 1.12 93 1009.4
20260507023041 12 285 3.2 12.9 0.10 1.12 1.12 93 1009.4
20260507021545 13 285 1.6 8.0 0.00 1.02 1.02 94 1009.0
20260507020035 13 285 1.6 6.4 0.00 1.02 1.02 94 1009.1
20260507014544 13 282 1.6 6.4 0.00 1.02 1.02 94 1008.8
20260507013042 13 282 1.6 8.0 0.00 1.02 1.02 94 1009.0
20260507011545 13 282 3.2 12.9 0.00 1.02 1.02 94 1008.8
20260507010050 13 282 1.6 8.0 0.00 1.02 1.02 94 1008.8
20260507004545 13 282 1.6 11.3 0.00 1.02 1.02 94 1008.6
20260507003043 13 290 3.2 11.3 0.00 1.02 1.02 94 1008.9
20260507001549 13 287 1.6 9.7 0.03 1.02 1.02 94 1008.9
20260507000042 13 283 0.0 6.4 0.03 1.02 1.02 94 1008.9
20260506234542 13 283 3.2 8.0 0.03 1.02 1.02 94 1008.8
20260506233045 13 283 1.6 12.9 0.05 1.02 1.02 93 1008.6
20260506231538 13 274 3.2 11.3 0.10 0.99 0.99 93 1008.3
20260506230042 13 269 1.6 9.7 0.15 0.99 0.99 93 1008.3
20260506224544 13 269 1.6 8.0 0.18 0.99 0.99 93 1008.3
20260506223045 13 269 1.6 11.3 0.15 0.97 0.97 93 1008.2
20260506221547 13 0 0.0 4.8 0.08 0.89 0.89 93 1008.2
20260506220048 13 267 3.2 9.7 0.05 0.81 0.81 93 1008.3
20260506214540 13 264 1.6 8.0 0.13 0.81 0.81 93 1008.2
20260506213036 13 264 3.2 9.7 0.18 0.81 0.81 93 1008.4
20260506211540 13 265 3.2 8.0 0.18 0.79 0.79 93 1008.5
20260506210042 13 265 1.6 9.7 0.18 0.76 0.76 93 1008.7
20260506204541 13 265 1.6 12.9 0.13 0.69 0.69 92 1008.8
20260506203041 13 263 1.6 6.4 0.10 0.64 0.64 92 1008.9
20260506201539 13 263 3.2 8.0 0.08 0.61 0.61 92 1008.9
20260506200040 13 263 1.6 11.3 0.08 0.58 0.58 92 1008.9
20260506194538 13 259 3.2 14.5 0.13 0.56 0.56 92 1009.1
20260506193036 13 253 1.6 17.7 0.13 0.53 0.53 92 1009.2
20260506191542 13 0 1.6 12.9 0.18 0.53 0.53 92 1009.5
20260506190041 13 254 3.2 14.5 0.18 0.51 0.51 91 1009.4
20260506184538 13 251 3.2 8.0 0.20 0.43 0.43 91 1009.6
20260506183034 13 251 3.2 11.3 0.30 0.41 0.41 90 1009.4
20260506181543 13 250 1.6 11.3 0.33 0.36 0.36 90 1009.5
20260506180041 14 250 1.6 8.0 0.30 0.30 0.30 89 1009.9
20260506174546 14 250 1.6 9.7 0.23 0.23 0.23 88 1010.2
20260506173041 15 249 1.6 6.4 0.10 0.10 0.10 86 1010.6
20260506171537 16 0 1.6 9.7 0.03 0.03 0.03 83 1010.9
20260506170036 17 247 6.4 16.1 0.00 0.00 0.00 78 1011.0
20260506164541 18 212 3.2 16.1 0.00 0.00 0.00 73 1010.7
20260506163048 18 210 3.2 14.5 0.00 0.00 0.00 72 1010.5
20260506161541 18 214 4.8 22.5 0.00 0.00 0.00 71 1010.7
20260506160042 18 169 3.2 12.9 0.00 0.00 0.00 70 1011.0
20260506154540 18 205 4.8 16.1 0.00 0.00 0.00 69 1010.9
20260506153041 18 202 4.8 17.7 0.00 0.00 0.00 68 1011.0
20260506151542 19 214 1.6 8.0 0.00 0.00 0.00 68 1011.1
20260506150050 18 197 6.4 20.9 0.00 0.00 0.00 69 1011.2
20260506144558 18 256 3.2 14.5 0.00 0.00 0.00 71 1011.5
20260506143050 18 246 6.4 19.3 0.00 0.00 0.00 72 1011.4
20260506141536 17 283 3.2 12.9 0.00 0.00 0.00 74 1011.4
20260506140053 17 267 3.2 11.3 0.00 0.00 0.00 76 1011.4
20260506134541 17 266 3.2 11.3 0.00 0.00 0.00 77 1011.3
20260506133047 16 271 3.2 9.7 0.00 0.00 0.00 79 1011.3
20260506131545 16 271 3.2 9.7 0.00 0.00 0.00 81 1011.4
20260506130105 15 268 3.2 9.7 0.00 0.00 0.00 82 1011.7
20260506124537 15 268 1.6 12.9 0.00 0.00 0.00 83 1011.9
20260506123040 15 262 4.8 14.5 0.00 0.00 0.00 83 1011.8
20260506121551 15 207 4.8 11.3 0.00 0.00 0.00 84 1011.6
20260506120041 15 218 3.2 14.5 0.00 0.00 0.00 84 1011.7
20260506114537 14 229 1.6 12.9 0.00 0.00 0.00 85 1011.8
20260506113038 14 226 4.8 16.1 0.00 0.00 0.00 85 1011.5
20260506111542 13 222 4.8 11.3 0.00 0.00 0.00 86 1012.2
20260506110044 13 219 1.6 11.3 0.00 0.00 0.00 86 1012.0
20260506104548 13 219 4.8 8.0 0.00 0.00 0.00 87 1012.1
20260506103040 13 219 1.6 4.8 0.00 0.00 0.00 87 1012.0
20260506101537 12 219 3.2 8.0 0.00 0.00 0.00 88 1011.8
20260506100037 12 219 1.6 6.4 0.00 0.00 0.00 87 1011.8
20260506094544 12 219 1.6 6.4 0.00 0.00 0.00 87 1011.7
20260506093044 12 219 4.8 11.3 0.00 0.00 0.00 87 1011.9
20260506091541 13 218 3.2 16.1 0.00 0.00 0.00 86 1011.7
20260506090042 13 219 1.6 12.9 0.00 0.00 0.00 86 1011.7
20260506084540 13 219 3.2 6.4 0.00 0.00 0.00 86 1012.1
20260506083053 13 219 3.2 12.9 0.00 0.00 0.00 86 1011.9
20260506081557 13 221 1.6 8.0 0.00 0.00 0.00 85 1011.9
20260506073041 13 224 1.6 9.7 0.00 0.00 0.00 84 1012.0
20260506071539 13 224 3.2 8.0 0.00 0.00 0.00 83 1012.2
20260506061546 14 240 3.2 11.3 0.00 0.00 0.00 81 1011.9
20260506044548 16 240 3.2 16.1 0.00 0.00 0.00 74 1012.5
20260506043041 16 224 4.8 20.9 0.00 0.00 0.00 74 1012.4
20260506041537 16 262 3.2 14.5 0.00 0.00 0.00 72 1012.4
20260506040043 16 271 4.8 20.9 0.00 0.00 0.00 71 1012.5
20260506034559 16 257 4.8 16.1 0.00 0.00 0.00 71 1012.5
20260506033042 16 247 4.8 14.5 0.00 0.00 0.00 71 1012.6